map of TAK home
Great Circle Mapper logo
TAK - Airport
Location
City:  Takamatsu, Shikoku Island, Kagawa, Japan
Name:Takamatsu Airport
ICAO:RJOT
IATA:TAK

Details
Type:Airport (Aerodrome, Airfield)
Use:Public/Civil
Latitude:3412'51"N (34.214167)
Longitude:13400'56"E (134.015556)
Datum:WGS 1984
Elevation:607 ft (185 m)
Variation:7.49W (WMM2015 magnetic declination)
-0.07 annual change
Runways:1
Longest:8200 × 200 ft (2499 × 61 m), paved

Time
Time Zone:UTC+9
Local Time:

Weather
METAR:RJOT 300427Z 27017G29KT 9999 FEW030 SCT040 26/16 Q0993 RMK 1CU030 3CU040 A2933
TAF:RJOT 292306Z 3000/3106 25018KT 9999 FEW025 SCT035 BKN045
TEMPO 3003/3007 26019G30KT
BECMG 3008/3010 20008KT
TEMPO 3021/3024 23015G27KT

Related Locations
Nearby:
Farthest:SSMT: 12081 mi / 19442 km
Mostardas, RS, BR

Find:

   beyond  
but within

Other Information
Maps:
NOTAMs:
Links:
Sources:

  
flag of Japan
flag of Kagawa
flag of Takamatsu
  

Sectional Chart

Flight Planning
at skyvector.com

Satellite Image

Google Maps Satellite view

 

Copyright © 2004-2016 Karl L. Swartz. All rights reserved.
The Great Circle Mapper name and logo are trademarks of the Great Circle Mapper.
All other trademarks mentioned herein belong to their respective owners.
Please see credits for attibutions and further copyright information.

  Follow gcmap on Facebook Follow gcmap on Twitter Follow gcmap on Google+ GCmap on LinkedIn

hCard Microformat

Geo Microformat